Jesup, GA

3:41 AM EST on January 24, 2017 (GMT -0500)
Jesup-Wayne County

Weather History for KJES - January, 2014

Change the Weather History Date:

Friday, January 24, 2014

  Actual Average (KLHW) Record (KLHW)
Temperature  
Mean Temperature 34 °F -  
Max Temperature 41 °F 64 °F 82 °F (1974)
Min Temperature 28 °F 40 °F 15 °F (2003)
Degree Days  
Heating Degree Days 30    
Moisture  
Dew Point 16 °F    
Average Humidity 49    
Maximum Humidity 87    
Minimum Humidity 31    
Precipitation  
Precipitation 0.00 in - - ()
Sea Level Pressure  
Sea Level Pressure 30.47 in    
Wind  
Wind Speed 6 mph (North)    
Max Wind Speed 12 mph    
Max Gust Speed 17 mph    
Visibility 10 miles    
Events      
Averages and records for this station are not official NWS values.
T = Trace of Precipitation, MM = Missing Value Source: NWS Daily Summary

Daily Weather History Graph

Daily Weather History Graph

Search for Another Location

Airport or City:

Trip Planner

Search our weather history database for the weather conditions in past years. The results will help you decide how hot, cold, wet, or windy it might be!

Date:

Astronomy

Jan. 24, 2014 Rise Set
Actual Time 7:24 AM EST 5:55 PM EST
Civil Twilight 6:58 AM EST 6:20 PM EST
Nautical Twilight 6:29 AM EST 6:50 PM EST
Astronomical Twilight 6:00 AM EST 7:19 PM EST
Moon 12:55 AM EST 12:08 PM EST
Length of Visible Light 11h 22m
Length of Day
10h 30m
Last Quarter, 45% of the Moon is Illuminated
Jan 24
Last Quarter
Jan 30
New
Feb 6
First Quarter
Feb 14
Full
Feb 22
Last Quarter

Hourly Weather History & Observations

Time (EST) Temp. Windchill Dew Point Humidity Pressure Visibility Wind Dir Wind Speed Gust Speed Precip Events Conditions
12:15 AM 35.6 °F 31.7 °F 23.0 °F 60% 30.41 in 10.0 mi NNW 4.6 mph - N/A   Clear
12:35 AM 35.6 °F 29.9 °F 21.2 °F 56% 30.42 in 10.0 mi NNW 6.9 mph - N/A   Clear
12:55 AM 35.6 °F 30.7 °F 21.2 °F 56% 30.43 in 10.0 mi North 5.8 mph - N/A   Clear
1:15 AM 35.6 °F 31.7 °F 19.4 °F 52% 30.43 in 10.0 mi North 4.6 mph - N/A   Clear
1:35 AM 33.8 °F 27.7 °F 19.4 °F 56% 30.44 in 10.0 mi North 6.9 mph - N/A   Clear
1:55 AM 33.8 °F 29.6 °F 19.4 °F 56% 30.45 in 10.0 mi North 4.6 mph - N/A   Clear
2:15 AM 33.8 °F 29.6 °F 21.2 °F 60% 30.46 in 10.0 mi NNW 4.6 mph - N/A   Clear
2:35 AM 33.8 °F 29.6 °F 19.4 °F 56% 30.46 in 10.0 mi NNW 4.6 mph - N/A   Clear
2:55 AM 33.8 °F 28.6 °F 19.4 °F 56% 30.46 in 10.0 mi NW 5.8 mph - N/A   Clear
3:15 AM 33.8 °F 26.4 °F 21.2 °F 60% 30.47 in 10.0 mi NW 9.2 mph - N/A   Scattered Clouds
3:35 AM 33.8 °F 25.3 °F 19.4 °F 56% 30.48 in 10.0 mi NNW 11.5 mph 16.1 mph N/A   Mostly Cloudy
3:55 AM 33.8 °F 27.0 °F 17.6 °F 52% 30.48 in 10.0 mi NNW 8.1 mph - N/A   Overcast
4:15 AM 33.8 °F 25.3 °F 15.8 °F 48% 30.49 in 10.0 mi NNW 11.5 mph 16.1 mph N/A   Overcast
4:35 AM 33.8 °F 26.4 °F 14.0 °F 44% 30.50 in 10.0 mi NNW 9.2 mph - N/A   Overcast
4:55 AM 33.8 °F 27.0 °F 14.0 °F 44% 30.51 in 10.0 mi NNW 8.1 mph 17.3 mph N/A   Overcast
5:15 AM 33.8 °F 27.7 °F 14.0 °F 44% 30.50 in 10.0 mi NNW 6.9 mph - N/A   Overcast
5:35 AM 33.8 °F 27.0 °F 14.0 °F 44% 30.51 in 10.0 mi NNW 8.1 mph - N/A   Overcast
5:55 AM 32.0 °F 25.6 °F 12.2 °F 44% 30.52 in 10.0 mi NNW 6.9 mph - N/A   Overcast
6:15 AM 32.0 °F 27.5 °F 12.2 °F 44% 30.52 in 10.0 mi North 4.6 mph - N/A   Overcast
6:35 AM 32.0 °F 26.4 °F 12.2 °F 44% 30.54 in 10.0 mi North 5.8 mph - N/A   Scattered Clouds
6:55 AM 32.0 °F 24.8 °F 8.6 °F 38% 30.55 in 10.0 mi North 8.1 mph - N/A   Clear
7:15 AM 32.0 °F 26.4 °F 8.6 °F 38% 30.54 in 10.0 mi North 5.8 mph - N/A   Clear
7:35 AM 32.0 °F 23.6 °F 8.6 °F 38% 30.55 in 10.0 mi North 10.4 mph - N/A   Clear
7:55 AM 30.2 °F 24.3 °F 8.6 °F 40% 30.56 in 10.0 mi North 5.8 mph - N/A   Clear
8:15 AM 30.2 °F 23.4 °F 10.4 °F 44% 30.56 in 10.0 mi North 6.9 mph - N/A   Clear
8:35 AM 32.0 °F 25.6 °F 10.4 °F 41% 30.57 in 10.0 mi North 6.9 mph - N/A   Clear
8:55 AM 32.0 °F 24.2 °F 10.4 °F 41% 30.57 in 10.0 mi North 9.2 mph - N/A   Clear
9:15 AM 32.0 °F 24.2 °F 10.4 °F 41% 30.57 in 10.0 mi NNE 9.2 mph 16.1 mph N/A   Clear
9:35 AM 32.0 °F 23.0 °F 10.4 °F 41% 30.57 in 10.0 mi North 11.5 mph 17.3 mph N/A   Clear
9:55 AM 32.0 °F 23.0 °F 10.4 °F 41% 30.57 in 10.0 mi NNE 11.5 mph - N/A   Clear
10:15 AM 32.0 °F 23.6 °F 10.4 °F 41% 30.57 in 10.0 mi North 10.4 mph - N/A   Clear
10:35 AM 32.0 °F 25.6 °F 12.2 °F 44% 30.58 in 10.0 mi NNE 6.9 mph - N/A   Clear
10:55 AM 33.8 °F 25.8 °F 12.2 °F 41% 30.58 in 10.0 mi NE 10.4 mph - N/A   Clear
11:15 AM 33.8 °F 30.8 °F 10.4 °F 38% 30.57 in 10.0 mi North 3.5 mph - N/A   Clear
11:35 AM 33.8 °F 28.6 °F 12.2 °F 41% 30.56 in 10.0 mi NNW 5.8 mph - N/A   Clear
11:55 AM 35.6 °F 29.2 °F 10.4 °F 35% 30.55 in 10.0 mi NE 8.1 mph - N/A   Clear
12:15 PM 35.6 °F 30.7 °F 12.2 °F 38% 30.53 in 10.0 mi North 5.8 mph - N/A   Clear
12:35 PM 35.6 °F 28.0 °F 12.2 °F 38% 30.52 in 10.0 mi NNE 10.4 mph - N/A   Clear
12:55 PM 35.6 °F - 12.2 °F 38% 30.50 in 10.0 mi Calm Calm - N/A   Clear
1:15 PM 37.4 °F 34.9 °F 12.2 °F 36% 30.49 in 10.0 mi North 3.5 mph 16.1 mph N/A   Clear
1:35 PM 37.4 °F 30.8 °F 10.4 °F 33% 30.47 in 10.0 mi North 9.2 mph - N/A   Clear
1:55 PM 39.2 °F 34.2 °F 12.2 °F 33% 30.47 in 10.0 mi NE 6.9 mph 16.1 mph N/A   Clear
2:15 PM 39.2 °F 33.6 °F 12.2 °F 33% 30.45 in 10.0 mi NE 8.1 mph - N/A   Clear
2:35 PM 39.2 °F 37.0 °F 12.2 °F 33% 30.44 in 10.0 mi North 3.5 mph - N/A   Clear
2:55 PM 41.0 °F 35.2 °F 12.2 °F 31% 30.44 in 10.0 mi NE 9.2 mph - N/A   Clear
3:15 PM 41.0 °F 36.4 °F 12.2 °F 31% 30.43 in 10.0 mi North 6.9 mph - N/A   Clear
3:35 PM 41.0 °F - 12.2 °F 31% 30.43 in 10.0 mi Calm Calm - N/A   Clear
3:55 PM 41.0 °F 36.4 °F 12.2 °F 31% 30.43 in 10.0 mi NNE 6.9 mph - N/A   Clear
4:15 PM 39.2 °F 35.9 °F 12.2 °F 33% 30.42 in 10.0 mi NE 4.6 mph - N/A   Clear
4:35 PM 37.4 °F 33.8 °F 12.2 °F 36% 30.42 in 10.0 mi NE 4.6 mph - N/A   Clear
4:55 PM 37.4 °F 34.9 °F 12.2 °F 36% 30.43 in 10.0 mi North 3.5 mph - N/A   Clear
5:15 PM 37.4 °F - 12.2 °F 36% 30.43 in 10.0 mi Calm Calm - N/A   Clear
5:35 PM 37.4 °F - 12.2 °F 36% 30.42 in 10.0 mi Calm Calm - N/A   Clear
5:55 PM 37.4 °F - 12.2 °F 36% 30.42 in 10.0 mi Calm Calm - N/A   Clear
6:15 PM 35.6 °F - 12.2 °F 38% 30.42 in 10.0 mi Calm Calm - N/A   Clear
6:35 PM 35.6 °F - 12.2 °F 38% 30.42 in 10.0 mi Calm Calm - N/A   Clear
6:55 PM 32.0 °F - 17.6 °F 55% 30.42 in 10.0 mi Calm Calm - N/A   Clear
7:15 PM 32.0 °F - 19.4 °F 60% 30.42 in 10.0 mi Calm Calm - N/A   Clear
7:35 PM 32.0 °F - 19.4 °F 60% 30.42 in 10.0 mi Calm Calm - N/A   Clear
7:55 PM 32.0 °F - 21.2 °F 64% 30.42 in 10.0 mi Calm Calm - N/A   Clear
8:15 PM 32.0 °F - 21.2 °F 64% 30.42 in 10.0 mi Calm Calm - N/A   Clear
8:35 PM 30.2 °F - 21.2 °F 69% 30.42 in 10.0 mi Calm Calm - N/A   Mostly Cloudy
8:55 PM 30.2 °F - 23.0 °F 75% 30.42 in 10.0 mi Calm Calm - N/A   Scattered Clouds
9:15 PM 28.4 °F - 23.0 °F 80% 30.41 in 10.0 mi Calm Calm - N/A   Scattered Clouds
9:35 PM 28.4 °F - 23.0 °F 80% 30.40 in 10.0 mi Calm Calm - N/A   Mostly Cloudy
9:55 PM 30.2 °F - 26.6 °F 86% 30.39 in 10.0 mi Calm Calm - N/A   Overcast
10:15 PM 32.0 °F - 26.6 °F 80% 30.39 in 10.0 mi Calm Calm - N/A   Overcast
10:35 PM 32.0 °F - 26.6 °F 80% 30.38 in 10.0 mi Calm Calm - N/A   Overcast
10:55 PM 32.0 °F - 24.8 °F 75% 30.37 in 10.0 mi Calm Calm - N/A   Overcast
11:15 PM 32.0 °F - 26.6 °F 80% 30.37 in 10.0 mi Calm Calm - N/A   Overcast
11:35 PM 32.0 °F - 26.6 °F 80% 30.36 in 10.0 mi Calm Calm - N/A   Overcast
11:55 PM 32.0 °F - 28.4 °F 87% 30.34 in 10.0 mi Calm Calm - N/A   Overcast